Redmond, OR

1:11 AM PDT on October 18, 2017 (GMT -0700)
Roberts Field Airport

Weather History for KRDM - April, 2012

Change the Weather History Date:

Tuesday, April 10, 2012

  Actual Average Record
Temperature  
Mean Temperature 49 °F 43 °F  
Max Temperature 64 °F 58 °F 86 °F (1968)
Min Temperature 34 °F 28 °F 15 °F (2010)
Degree Days  
Heating Degree Days 16 22  
Month to date heating degree days 253 223  
Since 1 July heating degree days 5573 5674  
Cooling Degree Days 0 0  
Month to date cooling degree days 0 0  
Year to date cooling degree days 0 0  
Moisture  
Dew Point 29 °F    
Average Humidity 51    
Maximum Humidity 82    
Minimum Humidity 20    
Precipitation  
Precipitation 0.00 in 0.02 in 0.37 in (1982)
Month to date precipitation 0.09 0.22  
Year to date precipitation 3.53 2.50  
Sea Level Pressure  
Sea Level Pressure 29.75 in    
Wind  
Wind Speed 5 mph (SW)    
Max Wind Speed 17 mph    
Max Gust Speed 22 mph    
Visibility 10 miles    
Events      
T = Trace of Precipitation, MM = Missing Value Source: NWS Daily Summary

Daily Weather History Graph

Daily Weather History Graph

Search for Another Location

Airport or City:

Trip Planner

Search our weather history database for the weather conditions in past years. The results will help you decide how hot, cold, wet, or windy it might be!

Date:

Astronomy

Apr. 10, 2012 Rise Set
Actual Time 6:28 AM PDT 7:43 PM PDT
Civil Twilight 5:58 AM PDT 8:13 PM PDT
Nautical Twilight 5:22 AM PDT 8:49 PM PDT
Astronomical Twilight 4:45 AM PDT 9:27 PM PDT
Moon No Moon Rise 9:09 AM PDT (4/10)
Length of Visible Light 14h 14m
Length of Day
13h 14m
Waning Gibbous, 78% of the Moon is Illuminated
Apr 10
Waning Gibbous
Apr 13
Last Quarter
Apr 21
New
Apr 29
First Quarter
May 5
Full

Hourly Weather History & Observations

Time (PDT) Temp. Windchill Dew Point Humidity Pressure Visibility Wind Dir Wind Speed Gust Speed Precip Events Conditions
12:56 AM 45.0 °F 41.8 °F 33.1 °F 63% 29.78 in 10.0 mi WSW 5.8 mph - N/A   Clear
1:56 AM 39.0 °F - 32.0 °F 76% 29.77 in 10.0 mi Calm Calm - N/A   Clear
2:56 AM 39.0 °F 35.7 °F 32.0 °F 76% 29.77 in 10.0 mi SSE 4.6 mph - N/A   Clear
3:56 AM 39.0 °F 36.8 °F 30.9 °F 73% 29.77 in 10.0 mi South 3.5 mph - N/A   Clear
4:56 AM 37.9 °F 34.4 °F 30.9 °F 76% 29.76 in 10.0 mi SSE 4.6 mph - N/A   Clear
5:56 AM 37.0 °F - 30.0 °F 76% 29.76 in 10.0 mi Calm Calm - N/A   Clear
6:56 AM 35.1 °F - 30.0 °F 82% 29.78 in 10.0 mi Calm Calm - N/A   Clear
7:56 AM 39.9 °F - 32.0 °F 73% 29.78 in 10.0 mi Calm Calm - N/A   Clear
8:56 AM 46.0 °F 44.8 °F 32.0 °F 58% 29.78 in 10.0 mi SE 3.5 mph - N/A   Clear
9:56 AM 57.0 °F - 25.0 °F 29% 29.76 in 10.0 mi South 6.9 mph - N/A   Clear
10:56 AM 57.9 °F - 18.0 °F 21% 29.76 in 10.0 mi Variable 4.6 mph - N/A   Clear
11:56 AM 61.0 °F - 19.0 °F 20% 29.76 in 10.0 mi SW 9.2 mph - N/A   Clear
12:56 PM 60.8 °F - 21.2 °F 22% 29.76 in 10.0 mi WSW 10.4 mph 18.4 mph N/A   Clear
1:56 PM 63.0 °F - 21.0 °F 20% 29.74 in 10.0 mi WSW 6.9 mph - N/A   Clear
2:56 PM 62.6 °F - 21.2 °F 20% 29.74 in 10.0 mi Variable 5.8 mph - N/A   Clear
3:56 PM 62.1 °F - 23.0 °F 22% 29.72 in 10.0 mi SSW 4.6 mph - N/A   Partly Cloudy
4:56 PM 61.0 °F - 26.1 °F 26% 29.72 in 10.0 mi SSW 8.1 mph - N/A   Scattered Clouds
5:56 PM 59.0 °F - 28.0 °F 31% 29.73 in 10.0 mi West 9.2 mph - N/A   Mostly Cloudy
6:56 PM 57.0 °F - 28.0 °F 33% 29.74 in 10.0 mi NNW 4.6 mph - N/A   Overcast
7:56 PM 53.1 °F - 30.9 °F 43% 29.73 in 10.0 mi Calm Calm - N/A   Mostly Cloudy
8:56 PM 51.8 °F - 33.8 °F 50% 29.74 in 10.0 mi NNE 6.9 mph - N/A   Partly Cloudy
9:56 PM 50.0 °F - 35.1 °F 57% 29.71 in 10.0 mi Calm Calm - N/A   Scattered Clouds
10:56 PM 48.9 °F - 37.0 °F 64% 29.70 in 10.0 mi NNW 8.1 mph - N/A   Mostly Cloudy
11:56 PM 48.0 °F - 37.0 °F 66% 29.69 in 10.0 mi West 4.6 mph - N/A   Scattered Clouds